• In Austria
  • List of Countries
  • For 7 days
  • Water Temperature
  • Satellite Maps
  • Weather Map
  • News
  • Weather Widgets
  • user-avatar
    Login

    Hourly Weather Durres

    Today, 25 February, Sunday

    Time Temperature Precipitation Wind Pressure Humidity
    00:00 +7°C° 0 mm 4 mps 755 mmHg 75%
    01:00 +6°C° 0 mm 4 mps 755 mmHg 75%
    02:00 +6°C° 0.1 mm 4 mps 755 mmHg 74%
    03:00 +6°C° 0.1 mm 4 mps 755 mmHg 74%
    04:00 +6°C° 0.1 mm 5 mps 754 mmHg 74%
    05:00 +6°C° 0.3 mm 5 mps 754 mmHg 74%
    06:00 +5°C° 0.3 mm 5 mps 754 mmHg 75%
    07:00 +5°C° 0.3 mm 5 mps 754 mmHg 75%
    08:00 +5°C° 0.4 mm 6 mps 755 mmHg 74%
    09:00 +5°C° 0.4 mm 6 mps 755 mmHg 74%
    10:00 +5°C° 0.4 mm 6 mps 755 mmHg 73%
    11:00 +7°C° 0.3 mm 6 mps 754 mmHg 72%
    12:00 +7°C° 0.3 mm 6 mps 754 mmHg 71%
    13:00 +8°C° 0.3 mm 6 mps 754 mmHg 70%
    14:00 +8°C° 0.8 mm 6 mps 754 mmHg 72%
    15:00 +7°C° 0.8 mm 6 mps 753 mmHg 75%
    16:00 +7°C° 0.8 mm 6 mps 753 mmHg 78%
    17:00 +5°C° 2.1 mm 6 mps 752 mmHg 78%
    18:00 +4°C° 2.1 mm 6 mps 752 mmHg 79%
    19:00 +4°C° 2.1 mm 7 mps 752 mmHg 79%
    20:00 +3°C° 3 mm 7 mps 751 mmHg 80%
    21:00 +2°C° 3 mm 8 mps 751 mmHg 82%
    22:00 +1°C° 3 mm 9 mps 751 mmHg 83%
    23:00 +1°C° 1.9 mm 9 mps 750 mmHg 84%

    Tomorrow, 26 February, Monday

    Time Temperature Precipitation Wind Pressure Humidity
    00:00 0°C° 1.9 mm 9 mps 750 mmHg 84%
    01:00 0°C° 1.9 mm 9 mps 750 mmHg 85%
    02:00 0°C° 1.3 mm 9 mps 749 mmHg 85%
    03:00 0°C° 1.3 mm 9 mps 749 mmHg 85%
    04:00 0°C° 1.3 mm 9 mps 749 mmHg 85%
    05:00 0°C° 0.9 mm 9 mps 749 mmHg 86%
    06:00 -1°C° 0.9 mm 8 mps 749 mmHg 88%
    07:00 -1°C° 0.9 mm 7 mps 749 mmHg 90%
    08:00 +1°C° 0.3 mm 6 mps 749 mmHg 90%
    09:00 +1°C° 0.3 mm 5 mps 750 mmHg 90%
    10:00 +1°C° 0.3 mm 4 mps 750 mmHg 91%
    11:00 +3°C° 0 mm 4 mps 750 mmHg 89%
    12:00 +4°C° 0 mm 3 mps 749 mmHg 88%
    13:00 +5°C° 0 mm 3 mps 749 mmHg 86%
    14:00 +6°C° 0.1 mm 2 mps 749 mmHg 87%
    15:00 +6°C° 0.1 mm 2 mps 749 mmHg 88%
    16:00 +7°C° 0.1 mm 1 mps 749 mmHg 89%
    17:00 +6°C° 0.3 mm 1 mps 750 mmHg 90%
    18:00 +6°C° 0.3 mm 1 mps 750 mmHg 92%
    19:00 +4°C° 0.3 mm 2 mps 750 mmHg 94%
    20:00 +4°C° 0.5 mm 2 mps 751 mmHg 93%
    21:00 +4°C° 0.5 mm 2 mps 751 mmHg 93%
    22:00 +4°C° 0.5 mm 2 mps 751 mmHg 92%
    23:00 +3°C° 0.3 mm 2 mps 751 mmHg 93%

    Day after tomorrow, 27 February, Tuesday

    Time Temperature Precipitation Wind Pressure Humidity
    00:00 +2°C° 0.3 mm 3 mps 751 mmHg 93%
    01:00 +2°C° 0.3 mm 3 mps 752 mmHg 94%
    02:00 +1°C° 0.5 mm 4 mps 752 mmHg 94%
    03:00 +1°C° 0.5 mm 4 mps 752 mmHg 94%
    04:00 +1°C° 0.5 mm 5 mps 752 mmHg 95%
    05:00 +1°C° 0.5 mm 5 mps 752 mmHg 94%
    06:00 +1°C° 0.5 mm 5 mps 753 mmHg 94%
    07:00 +1°C° 0.5 mm 6 mps 753 mmHg 93%
    08:00 +2°C° 0.4 mm 6 mps 753 mmHg 91%
    09:00 +2°C° 0.4 mm 7 mps 754 mmHg 88%
    10:00 +3°C° 0.4 mm 7 mps 754 mmHg 85%
    11:00 +3°C° 0.2 mm 7 mps 754 mmHg 83%
    12:00 +4°C° 0.2 mm 6 mps 754 mmHg 82%
    13:00 +4°C° 0.2 mm 6 mps 754 mmHg 80%
    14:00 +5°C° 0.1 mm 5 mps 754 mmHg 80%
    15:00 +5°C° 0.1 mm 5 mps 754 mmHg 80%
    16:00 +5°C° 0.1 mm 4 mps 755 mmHg 79%
    17:00 +4°C° 0 mm 4 mps 755 mmHg 81%
    18:00 +3°C° 0 mm 3 mps 755 mmHg 83%
    19:00 +2°C° 0 mm 3 mps 756 mmHg 85%
    20:00 +2°C° 0 mm 3 mps 756 mmHg 84%
    21:00 +1°C° 0 mm 3 mps 756 mmHg 84%
    22:00 +1°C° 0 mm 3 mps 756 mmHg 83%
    23:00 +1°C° 0 mm 3 mps 756 mmHg 81%

    28 February, Wednesday

    Time Temperature Precipitation Wind Pressure Humidity
    00:00 -1°C° 0 mm 4 mps 756 mmHg 80%
    01:00 -1°C° 0 mm 4 mps 756 mmHg 79%
    02:00 -1°C° 0 mm 4 mps 756 mmHg 77%
    03:00 -2°C° 0 mm 4 mps 756 mmHg 76%
    04:00 -2°C° 0 mm 4 mps 756 mmHg 75%
    05:00 -2°C° 0 mm 4 mps 757 mmHg 74%
    06:00 -2°C° 0 mm 4 mps 757 mmHg 73%
    07:00 -1°C° 0 mm 3 mps 757 mmHg 72%
    08:00 +1°C° 0 mm 3 mps 758 mmHg 68%
    09:00 +3°C° 0 mm 3 mps 758 mmHg 63%
    10:00 +4°C° 0 mm 3 mps 759 mmHg 59%
    11:00 +5°C° 0.1 mm 3 mps 759 mmHg 60%
    12:00 +5°C° 0.1 mm 3 mps 759 mmHg 61%
    13:00 +5°C° 0.1 mm 3 mps 759 mmHg 62%
    14:00 +5°C° 0 mm 4 mps 760 mmHg 63%
    15:00 +4°C° 0 mm 4 mps 760 mmHg 64%
    16:00 +4°C° 0 mm 4 mps 760 mmHg 66%
    17:00 +3°C° 0 mm 4 mps 761 mmHg 70%
    18:00 0°C° 0 mm 4 mps 762 mmHg 74%
    19:00 -1°C° 0 mm 4 mps 763 mmHg 78%
    20:00 -1°C° 0 mm 3 mps 763 mmHg 77%
    21:00 -1°C° 0 mm 3 mps 764 mmHg 76%
    22:00 -1°C° 0 mm 3 mps 764 mmHg 74%
    23:00 -2°C° 0 mm 3 mps 765 mmHg 74%

    1 March, Thursday

    Time Temperature Precipitation Wind Pressure Humidity
    00:00 -2°C° 0 mm 3 mps 765 mmHg 73%
    01:00 -2°C° 0 mm 3 mps 765 mmHg 72%
    02:00 -2°C° 0 mm 3 mps 765 mmHg 71%
    03:00 -2°C° 0 mm 3 mps 765 mmHg 71%
    04:00 -2°C° 0 mm 3 mps 765 mmHg 70%
    05:00 -2°C° 0 mm 4 mps 765 mmHg 69%
    06:00 -2°C° 0 mm 4 mps 764 mmHg 69%
    07:00 -1°C° 0 mm 4 mps 764 mmHg 68%
    08:00 +1°C° 0 mm 4 mps 764 mmHg 67%
    09:00 +4°C° 0 mm 4 mps 764 mmHg 65%
    10:00 +6°C° 0 mm 4 mps 763 mmHg 64%
    11:00 +7°C° 0 mm 4 mps 763 mmHg 64%
    12:00 +7°C° 0 mm 4 mps 762 mmHg 64%
    13:00 +8°C° 0 mm 4 mps 762 mmHg 64%
    14:00 +8°C° 0 mm 5 mps 761 mmHg 67%
    15:00 +8°C° 0 mm 5 mps 761 mmHg 71%
    16:00 +7°C° 0 mm 5 mps 760 mmHg 74%
    17:00 +7°C° 0.2 mm 6 mps 760 mmHg 76%
    18:00 +6°C° 0.2 mm 7 mps 760 mmHg 79%
    19:00 +5°C° 0.2 mm 7 mps 759 mmHg 81%
    20:00 +5°C° 0.1 mm 8 mps 759 mmHg 82%
    21:00 +5°C° 0.1 mm 8 mps 759 mmHg 83%
    22:00 +5°C° 0.1 mm 8 mps 759 mmHg 84%
    23:00 +5°C° 0.1 mm 9 mps 758 mmHg 84%

    2 March, Friday

    Time Temperature Precipitation Wind Pressure Humidity
    00:00 +5°C° 0.1 mm 9 mps 758 mmHg 84%
    01:00 +5°C° 0.1 mm 9 mps 757 mmHg 84%
    02:00 +5°C° 0 mm 9 mps 757 mmHg 84%
    03:00 +5°C° 0 mm 9 mps 756 mmHg 84%
    04:00 +5°C° 0 mm 10 mps 756 mmHg 84%
    05:00 +5°C° 0 mm 10 mps 756 mmHg 84%
    06:00 +6°C° 0 mm 10 mps 755 mmHg 84%
    07:00 +6°C° 0 mm 10 mps 755 mmHg 84%
    08:00 +7°C° 0.2 mm 10 mps 755 mmHg 82%
    09:00 +8°C° 0.2 mm 10 mps 755 mmHg 79%
    10:00 +11°C° 0.2 mm 10 mps 755 mmHg 77%
    11:00 +11°C° 0.5 mm 10 mps 755 mmHg 79%
    12:00 +11°C° 0.5 mm 9 mps 754 mmHg 80%
    13:00 +11°C° 0.5 mm 9 mps 754 mmHg 82%
    14:00 +11°C° 0.5 mm 9 mps 754 mmHg 81%
    15:00 +12°C° 0.5 mm 10 mps 754 mmHg 80%
    16:00 +12°C° 0.5 mm 10 mps 753 mmHg 79%
    17:00 +11°C° 1 mm 10 mps 753 mmHg 82%
    18:00 +10°C° 1 mm 9 mps 753 mmHg 85%
    19:00 +8°C° 1 mm 9 mps 754 mmHg 88%
    20:00 +8°C° 0.6 mm 9 mps 754 mmHg 88%
    21:00 +8°C° 0.6 mm 10 mps 754 mmHg 88%
    22:00 +8°C° 0.6 mm 10 mps 754 mmHg 88%
    23:00 +8°C° 0.9 mm 9 mps 754 mmHg 89%
    Show more